Regional Weather Roundup
Issued by NWS New Orleans/Baton Rouge, LA

Home | Current Version | Previous Version | Text Only | Print | Product List | Glossary On
Versions: 1 2 3 4 5 6 7 8 9 10 11 12 13 14 15 16 17 18 19 20 21 22 23 24 25 26 27 28 29 30 31 32 33 34 35 36 37 38 39 40 41 42 43 44 45 46 47 48 49 50
000
ASUS44 KLIX 020210
RWRLIX
NEW ORLEANS REGIONAL WEATHER ROUNDUP
NATIONAL WEATHER SERVICE NEW ORLEANS LA
900 PM CDT MON SEP 01 2014

NOTE: "FAIR" INDICATES FEW OR NO CLOUDS BELOW 12,000 FEET WITH NO
      SIGNIFICANT WEATHER AND/OR OBSTRUCTIONS TO VISIBILITY.
      SKY/WX - SKY CONDITION AND SIGNIFICANT WEATHER.
      TMP - AIR TEMPERATURE.     DP    - DEWPOINT TEMPERATURE.
      RH  - RELATIVE HUMIDITY.   PRES  - PRESSURE.
      HI  - HEAT INDEX.          WCI   - WIND CHILL INDEX.

*  THESE STATIONS ARE NOT NWS OR FAA STATIONS AND ARE NOT UNDER
   NWS QUALITY CONTROL.

LAZ038-040-048-061>063-065>067-069-020300-
SOUTHEAST LOUISIANA

CITY           SKY/WX    TMP DP  RH WIND       PRES   REMARKS
N.O. AUDUBON     N/A     83  79  88 MISG        N/A
N.O. INTL ARPT CLOUDY    82  76  81 SE3       30.04R
N.O. LAKEFRONT CLOUDY    80  76  87 SE10      30.05R
N.O. DOWNTOWN*   N/A     82  73  74 SE5       30.05R
SLIDELL        CLOUDY    78  75  90 CALM      30.05R
BATON ROUGE    CLOUDY    79  74  84 SE8       30.03R
BOOTHVILLE     MOCLDY    82  77  84 SE5       30.05R
BELLE CHASSE   CLOUDY    81  76  84 E3        30.04R THUNDER
BOGALUSA*        N/A     78  74  87 CALM      30.06R
GALLIANO*      NOT AVBL
NEW ROADS*       N/A     79  77  92 E6        30.02R
GONZALES*        N/A     80  80 100 CALM      30.03R
HAMMOND*       CLOUDY    79  73  83 S5        30.06R
HOUMA*         MOCLDY    80  74  82 CALM      30.03R
PORT FOURCHON* PTCLDY    86  75  70 S7        30.05R HX  95

$$

MSZ070-080>082-020300-
SOUTHERN MISSISSIPPI

CITY           SKY/WX    TMP DP  RH WIND       PRES   REMARKS
MCCOMB         LGT RAIN  77  75  93 E3        30.05R
GULFPORT       LGT RAIN  82  73  74 SE13      30.06R
BILOXI         CLOUDY    84  76  77 SW8       30.06R
PASCAGOULA     MOCLDY    76  75  97 CALM      30.06R
STENNIS ARPT*  MOCLDY   N/A N/A N/A S3        30.06R

$$

COASTAL OBSERVATIONS
LAKE AND NEARSHORE STATIONS

STATION/POSITION TIME  TEMP    WIND        PRES    WAVE
                       AIR SEA DIR/SP/G            HT/PER
                 (UTC) (F)     (DEG/KT/KT) (MB)    (FT/S)
PASCAGOULA       0200   86     170/  6/ 10 1017.5
WAVELAND YACHT   0200   84     190/  6/  9 1017.1
GRAND ISLE       0200   84 85  140/  5/  7 1017.9
SOUTHWEST PASS   0200   84 91  140/  5/ 10 1017.7
NEW CANAL        0200   80 81  100/  1/  3 1017.7
SHELL BEACH      0200   81 81  120/  6/  8 1017.5

OFFSHORE STATIONS

STATION/POSITION TIME  TEMP    WIND        PRES    WAVE
                       AIR SEA DIR/SP/G            HT/PER
                 (UTC) (F)     (DEG/KT/KT) (MB)    (FT/S)
64 S DAUPHIN ISL 0114   84 85  170/ 10/ 12 1017.7

$$



USA.gov is the U.S. government's official web portal to all federal, state and local government web resources and services.